Regional Weather Roundup
Issued by NWS Austin/San Antonio, TX

Home | Current Version | Previous Version | Text Only | Print | Product List | Glossary On
Versions: 1 2 3 4 5 6 7 8 9 10 11 12 13 14 15 16 17 18 19 20 21 22 23 24 25 26 27 28 29 30 31 32 33 34 35 36 37 38 39 40 41 42 43 44 45 46 47 48 49 50
000
ASUS44 KEWX 171710
RWREWX
SOUTH TEXAS REGIONAL WEATHER ROUNDUP
NATIONAL WEATHER SERVICE AUSTIN/SAN ANTONIO TX
1100 AM CST SUN FEB 17 2019

NOTE: "FAIR" INDICATED FEW OR NO CLOUDS BELOW 12,000 FEET WITH NO
SIGNIFICANT WEATHER AND/OR OBSTRUCTIONS TO VISIBILITY.

* - THESE STATIONS ARE NOT NWS OR FAA STATIONS...AND ARE NOT SUBJECT
    TO NWS AND FAA QUALITY CONTROL.

TXZ171-172-183>190-171800-
TEXAS HILL COUNTRY AND EDWARDS PLATEAU

CITY           SKY/WX    TMP DP  RH WIND       PRES   REMARKS
JUNCTION       SUNNY     61  23  23 N15       29.94R
*LLANO         SUNNY     57  36  44 NW10G18   29.98R
BURNET         SUNNY     54  37  52 N12       29.96R
*HORSESHOE BAY PTSUNNY   56  37  47 N12       29.94R
*KERRVILLE     SUNNY     61  26  26 N9G17     29.90S
*FREDERICKSBRG SUNNY     60  28  28 NE10G16   29.91S
*ROCKSPRINGS   SUNNY     61  18  18 N10G20    29.96S
*BOERNE STAGE  PTSUNNY   61  28  29 N14G22    29.89R
*CASTROVILLE   PTSUNNY   68  30  24 NE9       29.89R
HONDO          SUNNY     70  34  26 NE13      29.87R
*UVALDE        SUNNY     68  30  24 NE13      29.90R
DEL RIO        MOSUNNY   66  28  24 N9        29.92R
LAUGHLIN AFB   MOSUNNY   65  23  20 N13       29.91R
CARRIZO SPRGS  SUNNY     70  36  28 NE9       29.88S
*FAITH RANCH   SUNNY     72  37  28 N10G20    29.88S
$$

TXZ173-191>194-202-209-217>225-228-171800-
CENTRAL AND SOUTH CENTRAL TEXAS

CITY           SKY/WX    TMP DP  RH WIND       PRES   REMARKS
GEORGETOWN     PTSUNNY   50  42  74 N14       29.96R WCI  45
AUSTIN/BERGSTM MOSUNNY   58  44  60 N22       29.90R
AUSTIN/MABRY   MOSUNNY   59  40  49 N7G18     29.92R
*AUSTIN/EXEC   CLOUDY    52  45  76 NE21      29.93R
*LAGO VISTA    CLOUDY    53  32  46 N14G20    29.93R
SAN MARCOS     CLOUDY    63  40  42 N21       29.89R
NEW BRAUNFELS  CLOUDY    65  37  35 N18       29.86R
RANDOLPH AFB   MOSUNNY   65  37  35 N14G23    29.87R
PT SAN ANTONIO MOSUNNY   67  36  32 N14       29.86R
SAN ANTONIO    PTSUNNY   65  32  29 N17G23    29.87R
STINSON FIELD  MOSUNNY   69  29  22 N16G28    29.85R
*LA GRANGE     CLOUDY    56  48  74 N10G17    29.86R
*GIDDINGS      CLOUDY    55  47  76 N16G24    29.89R
*GONZALES      CLOUDY    58  47  66 N15G21    29.86R
$$

TXZ163>164-176>182-195>201-210>213-226-227-235-171800-
SOUTHEAST TEXAS

CITY           SKY/WX    TMP DP  RH WIND       PRES   REMARKS
COLLEGE STN    CLOUDY    56  47  71 N24G30    29.90R
*BRYAN         CLOUDY    51  45  79 N15G24    29.92R
*CALDWELL      CLOUDY    51  44  78 N20G28    29.91R
*CROCKETT        N/A     50  45  81 N13G20    29.93R WCI  45
*BRENHAM       CLOUDY    58  50  72 N17G25    29.87R
HUNTSVILLE     CLOUDY    51  48  89 N10G20    29.89R
CONROE         CLOUDY    54  53  97 N9G22     29.86R
HOUSTON BUSH   CLOUDY    59  56  89 N12       29.83R
HOUSTON HOBBY  CLOUDY    62  59  90 N14       29.80R FOG
*HOUSTON SW AP DRIZZLE   60  59  97 N8        29.82R
PEARLAND       CLOUDY    64  63  96 N8        29.81R FOG
HOUSTON HOOKS  CLOUDY    55  52  89 N12G21    29.85R
ELLINGTON FLD  CLOUDY    63  61  94 N12       29.82R
SUGAR LAND     CLOUDY    61  57  87 N14       29.81R
*HOUSTON EXEC    N/A     57  55  94 N16       29.85R
*CLEVELAND MUN CLOUDY    56  56 100 N12       29.85R FOG
*WHARTON       CLOUDY    57  55  93 N9        29.83R FOG
*COLUMBUS      CLOUDY    56  48  74 N13G20    29.86R
*EAGLE LAKE    CLOUDY    55  51  88 N12G22    29.85
$$

TXZ214>216-236>238-171800-
THE UPPER TEXAS COAST

CITY           SKY/WX    TMP DP  RH WIND       PRES   REMARKS
*ORANGE        CLOUDY    67  66  97 N8        29.81R
PORT ARTHUR    CLOUDY    69  63  81 N14       29.78R
GALVESTON      CLOUDY    67  63  87 N14       29.79R FOG
ANGLETON       CLOUDY    64  62  93 N8        29.79R
*BAY CITY      CLOUDY    63  61  94 N13       29.80R
PALACIOS       CLOUDY    64  62  93 N17       29.79S
$$

TXZ229>234-239>247-171800-
TEXAS COASTAL BEND AND RIO GRANDE PLAINS

CITY           SKY/WX    TMP DP  RH WIND       PRES   REMARKS
VICTORIA       CLOUDY    61  54  77 N15G23    29.82R
*BEEVILLE      PTSUNNY   71  48  44 NE15G23   29.82R
ROCKPORT       CLOUDY    63  60  90 NE10      29.80R
*PORT ARANSAS  CLOUDY    62  62  98 N16       29.81S FOG
*PORT LAVACA   CLOUDY    65  60  85 N15       29.81R
*INGLESIDE     CLOUDY    63  61  93 NE12G20   29.79S
CORPUS CHRISTI CLOUDY    65  60  84 NE21      29.80R
CORPUS NAS     CLOUDY    65  63  93 N16       29.80R FOG
*ROBSTOWN      NOT AVBL
ALICE          PTSUNNY   73  56  54 NE16      29.80S
KINGSVILLE NAS CLOUDY    68  62  81 N16       29.80R
COTULLA        CLOUDY    65  44  46 N13       29.87R
LAREDO         CLOUDY    72  53  51 N16       29.85S
$$

TXZ248>255-171800-
DEEP SOUTH TEXAS

CITY           SKY/WX    TMP DP  RH WIND       PRES   REMARKS
BROWNSVILLE    CLOUDY    74  73  97 W6        29.75R
PORT ISABEL    LGT RAIN  72  70  93 N8        29.74S FOG
HARLINGEN      CLOUDY    73  71  93 N8        29.75R FOG
*HEBBRONVILLE  CLOUDY    65  63  95 N14       29.84R
MCALLEN        LGT RAIN  71  68  90 N21G26    29.79R FOG
*WESLACO       DRIZZLE   68  66  94 N16G26    29.76
FALFURRIAS     CLOUDY    67  63  86 N8        29.80S
EDINBURG       CLOUDY    67  65  90 N17       29.80R FOG
*ZAPATA        CLOUDY    66  64  93 N12       29.85R
$$

TXZ213>215-236>238-242>244-246-247-251-254-255-171800-
CMAN STATIONS

STATION/POSITION TIME  TEMP    WIND        PRES    WAVE
                       AIR SEA DIR/SP/G            HT/PER
                 (UTC) (F)     (DEG/KT/KT) (MB)    (FT/S)
SABINE PASS      1642   67 64  140/  3/  5 1010.0
SEA RIM ST PARK  1600   69     170/  2/  3 1008.2
NORTH JETTY/GLS  1642   66 61  350/ 13/ 15 1008.1
EAGLE POINT      1642   64 63  360/  7/  9 1008.8
MORGANS POINT    1642   63 62  350/ 11/ 13 1008.9
PORT O`CONNOR    1642   61 63   20/ 12/ 14 1008.5
PORT ARANSAS     1600   61 61  350/ 10/ 13 1008.2
MALAQUITE BEACH  1642   63 62  350/ 13/ 15 1008.3
BAFFIN BAY       1642   64 67  360/ 14/ 17 1008.8
PORT ISABEL      1642   68 64  330/  5/  5 1007.3
$$




USA.gov is the U.S. government's official web portal to all federal, state and local government web resources and services.